TimePDT,TemperatureF,Dew PointF,Humidity,Sea Level PressureIn,VisibilityMPH,Wind Direction,Wind SpeedMPH,Gust SpeedMPH,PrecipitationIn,Events,Conditions,WindDirDegrees,DateUTC
12:00 AM,52.0,48.0,86,30.21,15.0,WSW,3.5,-,N/A,,Clear,240,1989-10-28 07:00:00
1:00 AM,52.0,48.0,86,30.20,15.0,West,4.6,-,N/A,,Clear,260,1989-10-28 08:00:00
2:00 AM,52.0,48.0,86,30.20,15.0,West,5.8,-,N/A,,Clear,270,1989-10-28 09:00:00
3:00 AM,51.1,48.0,89,30.19,15.0,WNW,3.5,-,N/A,,Clear,290,1989-10-28 10:00:00
4:00 AM,51.1,46.9,86,30.18,15.0,SW,6.9,-,N/A,,Clear,230,1989-10-28 11:00:00
5:00 AM,51.1,44.1,77,30.18,15.0,Calm,Calm,-,N/A,,Clear,0,1989-10-28 12:00:00
6:00 AM,55.0,43.0,64,30.18,15.0,North,16.1,-,N/A,,Clear,10,1989-10-28 13:00:00
7:00 AM,55.9,42.1,60,30.18,25.0,North,19.6,-,N/A,,Clear,350,1989-10-28 14:00:00
8:00 AM,55.0,39.0,55,30.18,25.0,North,25.3,-,N/A,,Clear,10,1989-10-28 15:00:00
9:00 AM,57.0,39.0,51,30.21,25.0,NNE,19.6,-,N/A,,Clear,30,1989-10-28 16:00:00
10:00 AM,57.9,37.0,46,30.20,25.0,NE,15.0,-,N/A,,Clear,50,1989-10-28 17:00:00
11:00 AM,59.0,42.1,53,30.20,25.0,East,8.1,-,N/A,,Clear,80,1989-10-28 18:00:00
12:00 PM,59.0,37.0,44,30.19,25.0,ENE,4.6,-,N/A,,Clear,60,1989-10-28 19:00:00
1:00 PM,60.1,36.0,41,30.17,25.0,North,8.1,-,N/A,,Clear,360,1989-10-28 20:00:00
2:00 PM,63.0,36.0,37,30.14,25.0,NNW,5.8,-,N/A,,Clear,330,1989-10-28 21:00:00
3:00 PM,64.0,36.0,35,30.12,25.0,NNW,5.8,-,N/A,,Clear,340,1989-10-28 22:00:00
4:00 PM,66.0,34.0,30,30.11,20.0,NE,5.8,-,N/A,,Clear,50,1989-10-28 23:00:00
5:00 PM,64.9,34.0,32,30.11,20.0,North,6.9,-,N/A,,Clear,10,1989-10-29 00:00:00
6:00 PM,61.0,39.9,46,30.09,20.0,ENE,17.3,-,N/A,,Clear,70,1989-10-29 01:00:00
7:00 PM,62.1,39.0,43,30.10,15.0,NE,11.5,-,N/A,,Clear,50,1989-10-29 02:00:00
8:00 PM,55.0,44.1,67,30.11,15.0,WNW,10.4,-,N/A,,Clear,300,1989-10-29 03:00:00
9:00 PM,57.0,41.0,55,30.11,15.0,West,3.5,-,N/A,,Clear,260,1989-10-29 04:00:00
10:00 PM,59.0,39.9,49,30.11,15.0,North,9.2,-,N/A,,Clear,360,1989-10-29 05:00:00
11:00 PM,59.0,39.0,48,30.12,15.0,North,9.2,-,N/A,,Clear,10,1989-10-29 06:00:00